Location: Trois-Rivi�res
(46.3500°N, 72.5500°W)
Time: 16:51:32
(UTC-05:00)

Vanguard 2 Rocket - Visible Passes

Search period start: 15 December 2017 00:00
Search period end: 25 December 2017 00:00
Orbit: 556 x 3326 km, 32.9° (Epoch: 15 December)

Date Brightness Start Highest point End Pass type
(mag) Time Alt. Az. Time Alt. Az. Time Alt. Az.
15 Dec 9.6 17:48:07 10° SSW 17:57:26 31° SE 18:06:35 19° ESE visible
15 Dec 9.4 19:59:02 10° WSW 20:11:47 50° S 20:12:23 49° SSE visible
15 Dec 10.2 22:12:34 10° W 22:18:11 27° WSW 22:18:11 27° WSW visible
16 Dec 9.8 16:50:38 10° S 16:57:56 22° SE 17:08:12 10° E visible
16 Dec 9.4 19:00:05 10° SW 19:11:09 44° SSE 19:16:08 37° SE visible
16 Dec 9.7 21:12:38 10° WSW 21:21:56 42° SW 21:21:56 42° SW visible
16 Dec 10.8 23:27:32 10° W 23:27:44 11° W 23:27:44 11° W visible
17 Dec 9.4 18:01:36 10° SW 18:11:00 37° SSE 18:19:54 22° ESE visible
17 Dec 9.4 20:13:11 10° WSW 20:25:42 50° S 20:25:42 50° S visible
17 Dec 10.3 22:27:00 10° W 22:31:30 23° WSW 22:31:30 23° WSW visible
18 Dec 9.5 17:03:39 10° SSW 17:11:22 28° SE 17:23:01 10° E visible
18 Dec 9.3 19:14:07 10° WSW 19:25:02 47° S 19:29:29 40° SE visible
18 Dec 9.8 21:27:01 10° WSW 21:35:17 37° SW 21:35:17 37° SW visible
19 Dec 9.3 18:15:26 10° SW 18:24:47 41° SSE 18:33:16 24° ESE visible
19 Dec 9.4 20:27:30 10° WSW 20:39:04 48° S 20:39:04 48° S visible
19 Dec 10.5 22:41:42 10° W 22:44:53 18° WSW 22:44:53 18° WSW visible
20 Dec 9.3 17:17:11 10° SW 17:25:01 34° SSE 17:37:05 11° E visible
20 Dec 9.3 19:28:20 10° WSW 19:39:02 47° S 19:42:53 41° SE visible
20 Dec 10.0 21:41:34 10° W 21:48:42 32° SW 21:48:42 32° SW visible
21 Dec 9.2 18:29:32 10° WSW 18:38:44 44° S 18:46:44 26° ESE visible
21 Dec 9.5 20:41:57 10° WSW 20:52:32 43° SSW 20:52:32 43° SSW visible
21 Dec 10.6 22:56:47 10° W 22:58:21 14° WSW 22:58:21 14° WSW visible
22 Dec 9.2 17:31:05 10° SW 17:38:53 38° SSE 17:50:38 12° ESE visible
22 Dec 9.3 19:42:42 10° WSW 19:53:07 44° S 19:56:26 40° SSE visible
22 Dec 10.1 21:56:22 10° W 22:02:15 26° WSW 22:02:15 26° WSW visible
23 Dec 9.2 16:33:00 10° SSW 16:39:26 30° SSE 16:49:29 10° E visible
23 Dec 9.2 18:43:49 10° WSW 18:52:49 43° S 19:00:23 27° SE visible
23 Dec 9.7 20:56:34 10° WSW 21:06:12 36° SSW 21:06:12 36° SSW visible
24 Dec 9.1 17:45:13 10° SW 17:52:53 39° S 18:04:23 13° ESE visible
24 Dec 9.5 19:57:14 10° WSW 20:07:15 39° S 20:10:12 36° SSE visible
24 Dec 10.3 22:11:39 10° WSW 22:16:02 19° WSW 22:16:02 19° WSW visible
